This is the latest recevied weather packets stored in our database for station/object DO7ZT-13. If no packets are shown the sender has not sent any weather packets the latest 10 day(s).
| Time | Temp. | Humidity | Pressure | Rain* | Wind** | Luminosity | Snow |
|---|---|---|---|---|---|---|---|
| 1777841421 | 20° C | 38% | 1011.8 hPa | 0 mm | 2.68 m/s, 138° | - | - |
| 1777841108 | 20° C | 38% | 1011.8 hPa | 0 mm | 2.24 m/s, 156° | - | - |
| 1777840820 | 20° C | 38% | 1011.8 hPa | 0 mm | 3.13 m/s, 138° | - | - |
| 1777840508 | 20° C | 38% | 1011.8 hPa | 0 mm | 1.79 m/s, 138° | - | - |
| 1777840221 | 20° C | 38% | 1011.8 hPa | 0 mm | 3.58 m/s, 141° | - | - |
| 1777839908 | 20° C | 38% | 1011.8 hPa | 0 mm | 1.79 m/s, 144° | - | - |
| 1777839620 | 20° C | 38% | 1011.8 hPa | 0 mm | 1.79 m/s, 150° | - | - |
| 1777839307 | 20° C | 36% | 1011.9 hPa | 0 mm | 2.68 m/s, 134° | - | - |
| 1777839020 | 20° C | 37% | 1011.9 hPa | 0 mm | 3.13 m/s, 135° | - | - |
| 1777838708 | 20° C | 36% | 1011.9 hPa | 0 mm | 1.79 m/s, 129° | - | - |
| 1777838421 | 20° C | 36% | 1012 hPa | 0 mm | 2.24 m/s, 129° | - | - |
| 1777838108 | 20° C | 35% | 1012 hPa | 0 mm | 1.79 m/s, 210° | - | - |
| 1777837821 | 20° C | 36% | 1012 hPa | 0 mm | 1.79 m/s, 138° | - | - |
| 1777837508 | 20° C | 36% | 1012 hPa | 0 mm | 2.24 m/s, 154° | - | - |
| 1777837233 | 20° C | 36% | 1012 hPa | 0 mm | 1.79 m/s, 156° | - | - |
| 1777836921 | 20° C | 36% | 1012 hPa | 0 mm | 1.79 m/s, 138° | - | - |
| 1777836608 | 20° C | 35% | 1012 hPa | 0 mm | 1.79 m/s, 166° | - | - |
| 1777836320 | 20° C | 35% | 1012 hPa | 0 mm | 1.34 m/s, 141° | - | - |
| 1777836008 | 18.89° C | 36% | 1012 hPa | 0 mm | 1.79 m/s, 144° | - | - |
| 1777835721 | 20° C | 36% | 1012 hPa | 0 mm | 1.79 m/s, 145° | - | - |
| 1777835408 | 20° C | 36% | 1012 hPa | 0 mm | 1.34 m/s, 144° | - | - |
| 1777835121 | 20° C | 36% | 1012 hPa | 0 mm | 1.79 m/s, 161° | - | - |
| 1777834808 | 18.89° C | 34% | 1012 hPa | 0 mm | 1.79 m/s, 135° | - | - |
| 1777834521 | 18.89° C | 37% | 1012 hPa | 0 mm | 1.34 m/s, 138° | - | - |
| 1777834208 | 18.89° C | 38% | 1012 hPa | 0 mm | 0.89 m/s, 134° | - | - |
* Rain latest hour (hover to see other rain measurements)
** Current wind speed in m/s (hover to see current wind gust speed)